Regional Weather Roundup
Issued by NWS

Home | Current Version | Previous Version | Text Only | Print | Product List | Glossary Off
Versions: 1 2 3 4 5 6 7 8 9 10 11 12 13 14 15 16 17 18 19 20 21 22 23 24 25 26 27 28 29 30 31 32 33 34 35 36 37 38 39 40 41 42 43 44 45 46 47 48 49 50

000
ASUS43 KLMK 030410
RWRKY
KENTUCKY REGIONAL WEATHER ROUNDUP
NATIONAL WEATHER SERVICE LOUISVILLE KY
1100 PM EST FRI DEC 02 2016

NOTE "FAIR" INDICATES FEW OR NO CLOUDS BELOW 12,000 FEET
WITH NO SIGNIFICANT WEATHER AND/OR OBSTRUCTIONS TO VISIBILITY.

KYZ001>023-026-027-061>063-070>075-030500-
WESTERN AND SOUTH CENTRAL KENTUCKY

CITY           SKY/WX    TMP DP  RH WIND       PRES   REMARKS
PADUCAH        CLEAR     33  28  81 CALM      30.34R
HENDERSON      NOT AVBL
OWENSBORO      CLEAR     33  29  85 NW3       30.36R
HOPKINSVILLE   CLEAR     36  30  80 NE5       30.33R WCI  32
BOWLING GREEN  CLEAR     37  30  75 CALM      30.34S
GLASGOW        CLEAR     38  31  76 N3        30.32F
$$

KYZ024-025-028>034-038-045-046-053-030500-
NORTH CENTRAL KENTUCKY

CITY           SKY/WX    TMP DP  RH WIND       PRES   REMARKS
LOUISVILLE/SDF CLOUDY    43  28  55 NW7       30.33S
LOUISVILLE/LOU CLOUDY    43  30  60 NW6       30.34S
FORT KNOX      CLOUDY    40  30  66 NW2       30.31R
$$

KYZ035>037-039>044-047>052-055>060-089>105-030500-
NORTHEAST KENTUCKY

CITY           SKY/WX    TMP DP  RH WIND       PRES   REMARKS
LEXINGTON      CLOUDY    39  29  67 NW3       30.32S
COVINGTON      CLOUDY    38  32  79 NW6       30.30S WCI  33
FRANKFORT      CLOUDY    40  30  67 CALM      30.31S
$$

KYZ054-064>069-076>088-106>120-030500-
SOUTHEAST KENTUCKY

CITY           SKY/WX    TMP DP  RH WIND       PRES   REMARKS
JACKSON        CLOUDY    36  29  75 CALM      30.30S
LONDON         CLEAR     34  27  75 CALM      30.31S
SOMERSET       CLEAR     34  30  86 CALM      30.33S
MIDDLESBORO    CLEAR     32  29  90 CALM      30.31R
MONTICELLO     CLEAR     34  29  82 W7        30.34R WCI  28
$$




USA.gov is the U.S. government's official web portal to all federal, state and local government web resources and services.